Calgary Springbank,

1:57 AM MDT on May 30, 2017 (GMT -0600)
Calgary Springbank

Weather History for CYBW - September, 2013

Change the Weather History Date:

Monday, September 16, 2013

  Actual Average Record
Temperature  
Mean Temperature 59 °F -  
Max Temperature 77 °F 53 °F 78 °F (1998)
Min Temperature 41 °F 30 °F 28 °F (2003)
Degree Days  
Heating Degree Days 6    
Growing Degree Days 9 (Base 50)    
Moisture  
Dew Point 46 °F    
Average Humidity 61    
Maximum Humidity 100    
Minimum Humidity 32    
Precipitation  
Precipitation 0.00 in - - ()
Sea Level Pressure  
Sea Level Pressure 29.68 in    
Wind  
Wind Speed 9 mph ()    
Max Wind Speed 29 mph    
Max Gust Speed 40 mph    
Visibility 16.4 miles    
Events      
Averages and records for this station are not official NWS values.
T = Trace of Precipitation, MM = Missing Value Source: Averaged Metar Reports

Daily Weather History Graph

Daily Weather History Graph

Search for Another Location

Airport or City:

Trip Planner

Search our weather history database for the weather conditions in past years. The results will help you decide how hot, cold, wet, or windy it might be!

Date:

Astronomy

Sep. 16, 2013 Rise Set
Actual Time 7:14 AM MDT 7:48 PM MDT
Civil Twilight 6:41 AM MDT 8:21 PM MDT
Nautical Twilight 6:01 AM MDT 9:01 PM MDT
Astronomical Twilight 5:19 AM MDT 9:42 PM MDT
Moon 6:12 PM MDT (9/16) 3:49 AM MDT (9/16)
Length of Visible Light 13h 40m
Length of Day
12h 33m
Waxing Gibbous, 90% of the Moon is Illuminated
Sep 16
Waxing Gibbous
Sep 19
Full
Sep 26
Last Quarter
Oct 4
New
Oct 11
First Quarter

Hourly Weather History & Observations

Time (MDT) Temp. Windchill Dew Point Humidity Pressure Visibility Wind Dir Wind Speed Gust Speed Precip Events Conditions
5:00 AM 42.8 °F 40.1 °F 42.8 °F 100% 29.74 in 15.0 mi NW 4.6 mph - N/A   Partly Cloudy
6:00 AM 42 °F - 41 °F 96% 29.74 in 15 mi WNW 4.6 mph - -   Scattered Clouds
6:00 AM 41.0 °F 38.0 °F 41.0 °F 100% 29.74 in 15.0 mi NW 4.6 mph - N/A   Partly Cloudy
7:00 AM 44.6 °F 43.1 °F 44.6 °F 100% 29.73 in 20.0 mi North 3.5 mph - N/A   Mostly Cloudy
8:00 AM 48.2 °F - 48.2 °F 100% 29.71 in 25.0 mi NW 5.8 mph - N/A   Mostly Cloudy
9:00 AM 55.4 °F - 51.8 °F 88% 29.70 in 30.0 mi Variable 2.3 mph - N/A   Partly Cloudy
10:00 AM 68.0 °F - 51.8 °F 56% 29.66 in 30.0 mi WSW 8.1 mph - N/A   Partly Cloudy
11:00 AM 71.6 °F - 51.8 °F 50% 29.63 in 30.0 mi SSW 2.3 mph - N/A   Partly Cloudy
12:00 PM 75.2 °F - 48.2 °F 38% 29.62 in 30.0 mi SW 15.0 mph 26.5 mph N/A   Partly Cloudy
1:00 PM 75.2 °F - 44.6 °F 34% 29.61 in 30.0 mi SW 18.4 mph 25.3 mph N/A   Partly Cloudy
2:00 PM 77.0 °F - 44.6 °F 32% 29.63 in 25.0 mi North - - N/A   Partly Cloudy
2:11 PM 73.4 °F - 46.4 °F 38% 29.65 in 25.0 mi WNW 20.7 mph 33.4 mph N/A   Partly Cloudy
2:16 PM 71.6 °F - 46.4 °F 41% 29.66 in 25.0 mi WNW 28.8 mph 36.8 mph N/A   Scattered Clouds
3:00 PM 66.2 °F - 44.6 °F 46% 29.69 in 25.0 mi WSW 23.0 mph 40.3 mph N/A   Scattered Clouds
4:00 PM 71.6 °F - 46.4 °F 41% 29.69 in 30.0 mi WSW 13.8 mph 23.0 mph N/A   Scattered Clouds
5:00 PM 69.8 °F - 46.4 °F 43% 29.68 in 30.0 mi West 10.4 mph - N/A   Partly Cloudy
6:00 PM 67 °F - 44 °F 32% 29.69 in 28 mi West 19.6 mph - -   Scattered Clouds
6:00 PM 68.0 °F - 44.6 °F 43% 29.68 in 30.0 mi West 17.3 mph 25.3 mph N/A   Partly Cloudy
7:00 PM 60.8 °F - 46.4 °F 59% 29.68 in 30.0 mi WNW 6.9 mph - N/A   Partly Cloudy
8:00 PM 53.6 °F - 44.6 °F 72% 29.69 in 20.0 mi WNW 10.4 mph - N/A   Partly Cloudy
9:00 PM 55.4 °F - 41.0 °F 58% 29.68 in 15.0 mi West 15.0 mph - N/A   Partly Cloudy
10:00 PM 50.0 °F - 41.0 °F 71% 29.68 in 15.0 mi West 11.5 mph - N/A   Partly Cloudy